Погода в Жигаеве

Россия / Курская область     52°02′47″N   35°27′02″E
темп.,
°C
ветер,
м/с
пор.,
м/с
влажн.,
%
обл.,
%
осадки,
мм/ч
давл.,
гПа
погр.,
м
25 февраля, чт
чт2500:00−6юз3796100 0.2 1031258
03:00−4юз4796100 0.3 1030246
06:00−1зюз4997100 0.1 1027347
09:000зюз51098100 0.1 1025329
12:00+2зюз511100100 0.0 1024267
15:00+2з613100100 0.1 1023318
18:00+2з511100100 0.0 1022275
21:00+2зсз511100100 0.1 1022271
26 февраля, пт
пт2600:00+2зсз511100100 0.1 1022270
03:00+2з511100100 0.1 1022234
06:00+2з611100100 0.0 1020248
09:00+2зюз61199100 0.0 1020316
12:00+2зюз714100100 0.0 1017423
15:00+2з714100100 0.0 1016394
18:00+2з61499100 0.1 1015363
21:00+2з51297100 0.1 1014352
27 февраля, сб
сб2700:00+1з51298100 0.0 1013424
03:00+1з51197100 0.0 1012414
06:00+1з61296100 0.0 1010502
09:00+1зсз61198100 0.1 1010458
12:00+1зсз61199100 0.1 1010532
15:00+1зсз611100100 0.1 1011540
18:00+1зсз5897100 0.0 1010439
21:000сз4898100 0.3 1012373
28 февраля, вс
вс2800:000ссз4898100 0.2 1012394
03:000ссз3894100 0.4 1014324
06:00−1с489691 0.1 1015344
09:00−1с489591 0.3 1017484
12:00−1с579094 0.1 1019654
15:00−1ссз578797 0.2 1020717
18:00−1ссз4894100 0.1 1021515
21:00−2ссз5993100 0.3 1024516
1 марта, пн
пн100:00−2ссз3792100 0.1 1025404
03:00−3ссз3793100 0.2 1027367
06:00−3ссз369598 0.1 1028381
09:00−3с359098 0.3 1030524
12:00−2ссз347889 0.1 1031826
15:00−1ссз348194 0.1 1031719
18:00−3зсз338927 0.0 103169
21:00−3зсз379343 0.0 1031151